STARLINK-1033 (44738 NORAD) Tracking and Keplerian Element Data

This shows tracking and keplerian element data for the satellite.

Feedback or suggestion? Click here.




ElementValue
Catalog44738
NameSTARLINK-1033
Epoch Orbit1141
Epoch Day23.25001157
Epoch Year2020
RAAN172.3164
Inclination53.0054
Eccentricity0.0001431
Argument of Perigee76.2551
Mean Anonmoly102.939
Mean Motion15.31521721
Decay Rate-0.00067699
L11 44738U 19074AB 20023.25001157 -.00067699 00000-0 -22015-2 0 9996
L22 44738 53.0054 172.3164 0001431 76.2551 102.9390 15.31521721 11413

Live tracking and technical data element details for STARLINK-1033 (NORAD 44738). STARLINK-1033 can be tracked NOW for your location showing map with azimuth and elevation plus other details from your city location.

Track the satellite on the map from your city or location and see movement details for azimuth, elevation, latitude, longitude, range, height, and movement on the map or in text.







IsCatalogInMostPopularTable: catalog: 44738, numindb: 10
Update: records affected: 1



GetName: 44738 STARLINK-1033

Hit Count: updated at: Fri, 24 Jan 2020 13:46:41 GMT